Time,TemperatureF,DewpointF,PressureIn,WindDirection,WindDirectionDegrees,WindSpeedMPH,WindSpeedGustMPH,Humidity,HourlyPrecipIn,Conditions,Clouds,dailyrainin,SolarRadiationWatts/m^2,SoftwareType,DateUTC
2013-07-30 00:02:00,65.3,22.0,30.04,ESE,107,5.0,0.0,19,0.00,,,0.00,0,WeatherHawk,2013-07-30 07:02:00,
2013-07-30 00:07:00,65.5,23.3,30.04,ESE,103,6.0,0.0,20,0.00,,,0.00,1,WeatherHawk,2013-07-30 07:07:00,
2013-07-30 00:12:00,64.6,22.6,30.05,East,101,4.0,0.0,20,0.00,,,0.00,0,WeatherHawk,2013-07-30 07:12:00,
2013-07-30 00:18:00,65.0,23.0,30.05,East,100,6.0,0.0,20,0.00,,,0.00,0,WeatherHawk,2013-07-30 07:18:00,
2013-07-30 00:23:00,64.4,22.5,30.06,SE,125,5.0,0.0,20,0.00,,,0.00,1,WeatherHawk,2013-07-30 07:23:00,
2013-07-30 00:28:00,63.7,23.1,30.06,SE,130,5.0,0.0,21,0.00,,,0.00,0,WeatherHawk,2013-07-30 07:28:00,
2013-07-30 00:33:00,64.1,23.3,30.06,SE,132,5.0,0.0,21,0.00,,,0.00,1,WeatherHawk,2013-07-30 07:33:00,
2013-07-30 00:39:00,63.1,22.5,30.07,SE,130,4.0,0.0,21,0.00,,,0.00,0,WeatherHawk,2013-07-30 07:39:00,
2013-07-30 00:44:00,63.3,23.8,30.06,SE,130,3.0,0.0,22,0.00,,,0.00,0,WeatherHawk,2013-07-30 07:44:00,
2013-07-30 00:50:00,63.4,23.9,30.06,SE,129,4.0,0.0,22,0.00,,,0.00,0,WeatherHawk,2013-07-30 07:50:00,
2013-07-30 00:55:00,63.9,24.3,30.07,SE,142,4.0,-999.0,22,0.00,,,0.00,0,WeatherHawk,2013-07-30 07:55:00,
2013-07-30 00:56:00,63.8,24.2,30.07,SE,127,4.0,0.0,22,0.00,,,0.00,0,WeatherHawk,2013-07-30 07:56:00,
2013-07-30 01:05:00,62.8,24.5,30.06,ESE,102,2.0,0.0,23,0.00,,,0.00,0,WeatherHawk,2013-07-30 08:05:00,
2013-07-30 01:11:00,62.3,25.0,30.07,ESE,111,3.0,0.0,24,0.00,,,0.00,0,WeatherHawk,2013-07-30 08:11:00,
2013-07-30 01:17:00,62.6,25.3,30.07,SE,133,3.0,0.0,24,0.00,,,0.00,0,WeatherHawk,2013-07-30 08:17:00,
2013-07-30 01:22:00,63.3,25.9,30.07,SE,124,3.0,0.0,24,0.00,,,0.00,0,WeatherHawk,2013-07-30 08:22:00,
2013-07-30 01:27:00,62.4,26.1,30.08,ESE,122,0.0,0.0,25,0.00,,,0.00,0,WeatherHawk,2013-07-30 08:27:00,
2013-07-30 01:32:00,61.8,26.5,30.07,SE,134,0.0,0.0,26,0.00,,,0.00,0,WeatherHawk,2013-07-30 08:32:00,
2013-07-30 01:38:00,61.7,27.4,30.08,SE,134,0.0,0.0,27,0.00,,,0.00,0,WeatherHawk,2013-07-30 08:38:00,
2013-07-30 01:43:00,62.4,28.9,30.08,ESE,117,0.0,0.0,28,0.00,,,0.00,0,WeatherHawk,2013-07-30 08:43:00,
2013-07-30 01:48:00,63.0,27.6,30.08,ESE,106,3.0,0.0,26,0.00,,,0.00,0,WeatherHawk,2013-07-30 08:48:00,
2013-07-30 01:53:00,62.5,28.1,30.08,East,95,0.0,0.0,27,0.00,,,0.00,0,WeatherHawk,2013-07-30 08:53:00,
2013-07-30 01:58:00,61.3,29.6,30.08,NE,45,0.0,0.0,30,0.00,,,0.00,0,WeatherHawk,2013-07-30 08:58:00,
2013-07-30 02:03:00,60.9,31.6,30.09,NE,45,0.0,0.0,33,0.00,,,0.00,1,WeatherHawk,2013-07-30 09:03:00,
2013-07-30 02:09:00,61.3,32.7,30.08,NE,45,0.0,0.0,34,0.00,,,0.00,1,WeatherHawk,2013-07-30 09:09:00,
2013-07-30 02:14:00,60.6,31.3,30.09,North,10,0.0,0.0,33,0.00,,,0.00,1,WeatherHawk,2013-07-30 09:14:00,
2013-07-30 02:19:00,59.3,30.9,30.09,North,10,0.0,0.0,34,0.00,,,0.00,0,WeatherHawk,2013-07-30 09:19:00,
2013-07-30 02:24:00,59.6,32.6,30.09,North,10,0.0,0.0,36,0.00,,,0.00,0,WeatherHawk,2013-07-30 09:24:00,
2013-07-30 02:29:00,59.3,32.3,30.09,North,10,0.0,0.0,36,0.00,,,0.00,0,WeatherHawk,2013-07-30 09:29:00,
2013-07-30 02:34:00,58.0,31.9,30.09,North,10,0.0,0.0,37,0.00,,,0.00,0,WeatherHawk,2013-07-30 09:34:00,
2013-07-30 02:39:00,59.8,32.8,30.09,North,10,0.0,0.0,36,0.00,,,0.00,0,WeatherHawk,2013-07-30 09:39:00,
2013-07-30 02:44:00,57.9,30.5,30.10,North,9,0.0,0.0,35,0.00,,,0.00,0,WeatherHawk,2013-07-30 09:44:00,
2013-07-30 02:49:00,58.5,32.3,30.10,East,101,0.0,0.0,37,0.00,,,0.00,0,WeatherHawk,2013-07-30 09:49:00,
2013-07-30 02:55:00,58.6,31.7,30.10,NE,50,0.0,0.0,36,0.00,,,0.00,0,WeatherHawk,2013-07-30 09:55:00,
2013-07-30 03:00:00,58.7,31.1,30.10,NE,50,0.0,-999.0,35,0.00,,,0.00,0,WeatherHawk,2013-07-30 10:00:00,
2013-07-30 03:05:00,58.9,31.3,30.10,NE,50,0.0,0.0,35,0.00,,,0.00,0,WeatherHawk,2013-07-30 10:05:00,
2013-07-30 03:10:00,58.0,31.2,30.10,NE,39,0.0,0.0,36,0.00,,,0.00,0,WeatherHawk,2013-07-30 10:10:00,
2013-07-30 03:15:00,57.9,32.4,30.10,NE,38,0.0,0.0,38,0.00,,,0.00,0,WeatherHawk,2013-07-30 10:15:00,
2013-07-30 03:21:00,57.2,33.1,30.10,NE,38,0.0,0.0,40,0.00,,,0.00,0,WeatherHawk,2013-07-30 10:21:00,
2013-07-30 03:26:00,56.6,32.6,30.11,NE,39,0.0,0.0,40,0.00,,,0.00,0,WeatherHawk,2013-07-30 10:26:00,
2013-07-30 03:31:00,56.4,32.4,30.11,NE,39,0.0,0.0,40,0.00,,,0.00,0,WeatherHawk,2013-07-30 10:31:00,
2013-07-30 03:36:00,56.5,31.9,30.11,NW,309,0.0,0.0,39,0.00,,,0.00,1,WeatherHawk,2013-07-30 10:36:00,
2013-07-30 03:41:00,56.6,31.9,30.11,NNW,348,0.0,0.0,39,0.00,,,0.00,0,WeatherHawk,2013-07-30 10:41:00,
2013-07-30 03:46:00,56.4,33.0,30.11,NNW,348,0.0,0.0,41,0.00,,,0.00,0,WeatherHawk,2013-07-30 10:46:00,
2013-07-30 03:51:00,56.0,31.4,30.11,North,351,0.0,0.0,39,0.00,,,0.00,0,WeatherHawk,2013-07-30 10:51:00,
2013-07-30 03:56:00,56.0,30.7,30.11,SE,125,0.0,0.0,38,0.00,,,0.00,0,WeatherHawk,2013-07-30 10:56:00,
2013-07-30 04:02:00,56.7,32.0,30.11,SE,125,0.0,0.0,39,0.00,,,0.00,0,WeatherHawk,2013-07-30 11:02:00,
2013-07-30 04:07:00,56.0,32.0,30.11,North,9,0.0,0.0,40,0.00,,,0.00,0,WeatherHawk,2013-07-30 11:07:00,
2013-07-30 04:12:00,54.1,31.6,30.11,NNW,327,0.0,0.0,42,0.00,,,0.00,0,WeatherHawk,2013-07-30 11:12:00,
2013-07-30 04:17:00,54.1,32.7,30.12,NW,323,0.0,0.0,44,0.00,,,0.00,0,WeatherHawk,2013-07-30 11:17:00,
2013-07-30 04:22:00,54.1,31.5,30.12,NW,323,0.0,0.0,42,0.00,,,0.00,0,WeatherHawk,2013-07-30 11:22:00,
2013-07-30 04:27:00,54.3,32.3,30.12,NW,323,0.0,0.0,43,0.00,,,0.00,0,WeatherHawk,2013-07-30 11:27:00,
2013-07-30 04:32:00,54.0,32.5,30.12,NW,323,0.0,0.0,44,0.00,,,0.00,0,WeatherHawk,2013-07-30 11:32:00,
2013-07-30 04:38:00,54.4,33.5,30.12,NW,323,0.0,0.0,45,0.00,,,0.00,0,WeatherHawk,2013-07-30 11:38:00,
2013-07-30 04:43:00,53.2,31.3,30.12,NW,323,0.0,0.0,43,0.00,,,0.00,0,WeatherHawk,2013-07-30 11:43:00,
2013-07-30 04:48:00,54.7,32.1,30.13,NW,322,0.0,0.0,42,0.00,,,0.00,0,WeatherHawk,2013-07-30 11:48:00,
2013-07-30 04:54:00,53.3,31.9,30.13,NW,323,0.0,0.0,44,0.00,,,0.00,0,WeatherHawk,2013-07-30 11:54:00,
2013-07-30 04:59:00,52.9,32.1,30.13,NW,323,0.0,0.0,45,0.00,,,0.00,0,WeatherHawk,2013-07-30 11:59:00,
2013-07-30 05:05:00,54.1,32.7,30.13,ESE,110,2.0,0.0,44,0.00,,,0.00,0,WeatherHawk,2013-07-30 12:05:00,
2013-07-30 05:10:00,53.8,31.9,30.13,NW,315,0.0,0.0,43,0.00,,,0.00,0,WeatherHawk,2013-07-30 12:10:00,
2013-07-30 05:15:00,53.8,32.9,30.13,NW,315,0.0,0.0,45,0.00,,,0.00,0,WeatherHawk,2013-07-30 12:15:00,
2013-07-30 05:20:00,54.5,31.9,30.13,NW,315,0.0,0.0,42,0.00,,,0.00,0,WeatherHawk,2013-07-30 12:20:00,
2013-07-30 05:25:00,54.2,31.0,30.13,West,277,2.0,0.0,41,0.00,,,0.00,0,WeatherHawk,2013-07-30 12:25:00,
2013-07-30 05:30:00,52.4,29.9,30.13,South,186,0.0,0.0,42,0.00,,,0.00,0,WeatherHawk,2013-07-30 12:30:00,
2013-07-30 05:36:00,53.0,30.6,30.13,SW,219,0.0,0.0,42,0.00,,,0.00,0,WeatherHawk,2013-07-30 12:36:00,
2013-07-30 05:41:00,52.5,30.0,30.13,SW,217,0.0,0.0,42,0.00,,,0.00,3,WeatherHawk,2013-07-30 12:41:00,
2013-07-30 05:46:00,52.4,30.5,30.13,SW,217,0.0,0.0,43,0.00,,,0.00,5,WeatherHawk,2013-07-30 12:46:00,
2013-07-30 05:51:00,52.7,30.8,30.14,SSE,155,0.0,0.0,43,0.00,,,0.00,6,WeatherHawk,2013-07-30 12:51:00,
2013-07-30 05:57:00,52.2,30.9,30.13,South,176,0.0,0.0,44,0.00,,,0.00,8,WeatherHawk,2013-07-30 12:57:00,
2013-07-30 06:02:00,52.8,31.5,30.14,West,273,0.0,0.0,44,0.00,,,0.00,13,WeatherHawk,2013-07-30 13:02:00,
2013-07-30 06:08:00,51.8,30.0,30.15,NNE,24,0.0,0.0,43,0.00,,,0.00,18,WeatherHawk,2013-07-30 13:08:00,
2013-07-30 06:14:00,52.9,31.6,30.15,NNW,336,0.0,0.0,44,0.00,,,0.00,20,WeatherHawk,2013-07-30 13:14:00,
2013-07-30 06:19:00,53.3,31.4,30.15,West,275,0.0,0.0,43,0.00,,,0.00,26,WeatherHawk,2013-07-30 13:19:00,
2013-07-30 06:25:00,53.2,30.7,30.15,WSW,251,0.0,0.0,42,0.00,,,0.00,30,WeatherHawk,2013-07-30 13:25:00,
2013-07-30 06:30:00,52.6,30.8,30.15,SW,218,0.0,0.0,43,0.00,,,0.00,34,WeatherHawk,2013-07-30 13:30:00,
2013-07-30 06:35:00,52.7,30.8,30.15,SW,218,0.0,0.0,43,0.00,,,0.00,39,WeatherHawk,2013-07-30 13:35:00,
2013-07-30 06:40:00,53.8,31.8,30.16,SW,218,0.0,0.0,43,0.00,,,0.00,43,WeatherHawk,2013-07-30 13:40:00,
2013-07-30 06:45:00,52.8,30.3,30.16,SW,218,0.0,0.0,42,0.00,,,0.00,43,WeatherHawk,2013-07-30 13:45:00,
2013-07-30 06:50:00,52.7,30.8,30.15,SW,218,0.0,0.0,43,0.00,,,0.00,48,WeatherHawk,2013-07-30 13:50:00,
2013-07-30 06:56:00,52.6,30.8,30.15,SW,218,0.0,0.0,43,0.00,,,0.00,61,WeatherHawk,2013-07-30 13:56:00,
2013-07-30 07:01:00,53.1,31.2,30.16,SW,218,0.0,0.0,43,0.00,,,0.00,66,WeatherHawk,2013-07-30 14:01:00,
2013-07-30 07:06:00,53.2,30.7,30.16,SW,218,0.0,0.0,42,0.00,,,0.00,71,WeatherHawk,2013-07-30 14:06:00,
2013-07-30 07:11:00,53.7,30.6,30.16,SW,218,0.0,0.0,41,0.00,,,0.00,83,WeatherHawk,2013-07-30 14:11:00,
2013-07-30 07:16:00,54.5,31.3,30.16,SW,218,0.0,0.0,41,0.00,,,0.00,100,WeatherHawk,2013-07-30 14:16:00,
2013-07-30 07:21:00,54.3,29.9,30.16,SW,218,0.0,0.0,39,0.00,,,0.00,122,WeatherHawk,2013-07-30 14:21:00,
2013-07-30 07:26:00,55.5,29.7,30.16,SW,218,0.0,0.0,37,0.00,,,0.00,119,WeatherHawk,2013-07-30 14:26:00,
2013-07-30 07:32:00,55.9,28.7,30.16,SW,218,0.0,0.0,35,0.00,,,0.00,171,WeatherHawk,2013-07-30 14:32:00,
2013-07-30 07:37:00,56.5,27.0,30.16,SW,218,0.0,0.0,32,0.00,,,0.00,115,WeatherHawk,2013-07-30 14:37:00,
2013-07-30 07:42:00,58.9,27.5,30.16,SW,218,0.0,0.0,30,0.00,,,0.00,222,WeatherHawk,2013-07-30 14:42:00,
2013-07-30 07:47:00,56.4,23.7,30.16,West,273,0.0,0.0,28,0.00,,,0.00,216,WeatherHawk,2013-07-30 14:47:00,
2013-07-30 07:52:00,59.3,25.3,30.16,WSW,238,0.0,0.0,27,0.00,,,0.00,164,WeatherHawk,2013-07-30 14:52:00,
2013-07-30 07:57:00,55.7,22.3,30.15,West,273,0.0,0.0,27,0.00,,,0.00,164,WeatherHawk,2013-07-30 14:57:00,
2013-07-30 08:02:00,55.9,24.1,30.16,West,264,0.0,0.0,29,0.00,,,0.00,164,WeatherHawk,2013-07-30 15:02:00,
2013-07-30 08:07:00,55.9,24.1,30.16,West,281,0.0,0.0,29,0.00,,,0.00,140,WeatherHawk,2013-07-30 15:07:00,
2013-07-30 08:13:00,55.3,25.2,30.16,West,271,0.0,0.0,31,0.00,,,0.00,136,WeatherHawk,2013-07-30 15:13:00,
2013-07-30 08:18:00,56.1,26.7,30.16,WSW,257,0.0,0.0,32,0.00,,,0.00,189,WeatherHawk,2013-07-30 15:18:00,
2013-07-30 08:24:00,57.2,27.6,30.16,WSW,255,0.0,0.0,32,0.00,,,0.00,240,WeatherHawk,2013-07-30 15:24:00,
2013-07-30 08:29:00,57.4,25.4,30.16,West,277,2.0,0.0,29,0.00,,,0.00,342,WeatherHawk,2013-07-30 15:29:00,
2013-07-30 08:34:00,58.3,27.0,30.16,NNW,335,1.0,0.0,30,0.00,,,0.00,335,WeatherHawk,2013-07-30 15:34:00,
2013-07-30 08:39:00,64.3,25.7,30.16,SW,218,0.0,0.0,23,0.00,,,0.00,380,WeatherHawk,2013-07-30 15:39:00,
2013-07-30 08:45:00,62.4,23.1,30.16,NNE,13,0.0,0.0,22,0.00,,,0.00,305,WeatherHawk,2013-07-30 15:45:00,
2013-07-30 08:50:00,61.8,20.3,30.15,SSE,165,0.0,0.0,20,0.00,,,0.00,306,WeatherHawk,2013-07-30 15:50:00,
2013-07-30 08:55:00,62.0,15.3,30.15,SSW,207,0.0,0.0,16,0.00,,,0.00,281,WeatherHawk,2013-07-30 15:55:00,
2013-07-30 09:00:00,61.3,17.4,30.15,WNW,299,0.0,0.0,18,0.00,,,0.00,321,WeatherHawk,2013-07-30 16:00:00,
2013-07-30 09:05:00,62.3,17.0,30.15,WNW,298,0.0,0.0,17,0.00,,,0.00,321,WeatherHawk,2013-07-30 16:05:00,
2013-07-30 09:11:00,65.8,18.3,30.15,NW,320,0.0,0.0,16,0.00,,,0.00,291,WeatherHawk,2013-07-30 16:11:00,
2013-07-30 09:16:00,66.3,15.7,30.14,SSW,200,0.0,0.0,14,0.00,,,0.00,374,WeatherHawk,2013-07-30 16:16:00,
2013-07-30 09:21:00,62.7,12.8,30.16,NNW,336,0.0,0.0,14,0.00,,,0.00,440,WeatherHawk,2013-07-30 16:21:00,
2013-07-30 09:26:00,63.0,13.1,30.15,NW,324,0.0,0.0,14,0.00,,,0.00,471,WeatherHawk,2013-07-30 16:26:00,
2013-07-30 09:31:00,63.3,11.7,30.14,NW,305,4.0,0.0,13,0.00,,,0.00,489,WeatherHawk,2013-07-30 16:31:00,
2013-07-30 09:37:00,64.3,14.1,30.15,North,351,2.0,0.0,14,0.00,,,0.00,460,WeatherHawk,2013-07-30 16:37:00,
2013-07-30 09:42:00,63.5,11.8,30.14,NW,318,4.0,0.0,13,0.00,,,0.00,431,WeatherHawk,2013-07-30 16:42:00,
2013-07-30 09:48:00,65.0,14.7,30.15,NW,323,3.0,0.0,14,0.00,,,0.00,391,WeatherHawk,2013-07-30 16:48:00,
2013-07-30 09:53:00,64.4,14.2,30.14,WNW,300,0.0,0.0,14,0.00,,,0.00,397,WeatherHawk,2013-07-30 16:53:00,
2013-07-30 09:58:00,66.9,10.7,30.14,NNW,340,4.0,0.0,11,0.00,,,0.00,455,WeatherHawk,2013-07-30 16:58:00,
2013-07-30 10:03:00,65.9,11.9,30.14,NW,306,4.0,0.0,12,0.00,,,0.00,497,WeatherHawk,2013-07-30 17:03:00,
2013-07-30 10:08:00,69.5,10.5,30.14,North,5,2.0,0.0,10,0.00,,,0.00,527,WeatherHawk,2013-07-30 17:08:00,
2013-07-30 10:13:00,68.9,-1.0,30.14,NE,56,4.0,0.0,6,0.00,,,0.00,576,WeatherHawk,2013-07-30 17:13:00,
2013-07-30 10:18:00,68.0,7.1,30.14,NNE,17,5.0,0.0,9,0.00,,,0.00,566,WeatherHawk,2013-07-30 17:18:00,
2013-07-30 10:23:00,69.3,5.5,30.14,NNE,21,3.0,0.0,8,0.00,,,0.00,445,WeatherHawk,2013-07-30 17:23:00,
2013-07-30 10:28:00,69.3,10.4,30.14,NNE,21,3.0,0.0,10,0.00,,,0.00,500,WeatherHawk,2013-07-30 17:28:00,
2013-07-30 10:34:00,69.5,10.5,30.14,NNW,327,5.0,0.0,10,0.00,,,0.00,498,WeatherHawk,2013-07-30 17:34:00,
2013-07-30 10:38:00,71.4,4.1,30.14,NNE,30,6.0,0.0,7,0.00,,,0.00,573,WeatherHawk,2013-07-30 17:38:00,
2013-07-30 10:44:00,70.4,3.4,30.14,North,4,2.0,0.0,7,0.00,,,0.00,558,WeatherHawk,2013-07-30 17:44:00,
2013-07-30 10:49:00,70.4,0.1,30.14,NE,42,5.0,0.0,6,0.00,,,0.00,603,WeatherHawk,2013-07-30 17:49:00,
2013-07-30 10:55:00,71.1,0.6,30.14,NE,37,1.0,0.0,6,0.00,,,0.00,611,WeatherHawk,2013-07-30 17:55:00,
2013-07-30 11:00:00,71.1,-3.2,30.14,NNE,17,2.0,0.0,5,0.00,,,0.00,578,WeatherHawk,2013-07-30 18:00:00,
2013-07-30 11:05:00,74.2,-1.0,30.14,WNW,285,5.0,0.0,5,0.00,,,0.00,557,WeatherHawk,2013-07-30 18:05:00,
2013-07-30 11:10:00,73.6,2.4,30.14,NNW,328,5.0,0.0,6,0.00,,,0.00,605,WeatherHawk,2013-07-30 18:10:00,
2013-07-30 11:15:00,71.5,4.2,30.14,North,0,0.0,0.0,7,0.00,,,0.00,689,WeatherHawk,2013-07-30 18:15:00,
2013-07-30 11:20:00,71.7,-2.8,30.13,North,351,3.0,0.0,5,0.00,,,0.00,716,WeatherHawk,2013-07-30 18:20:00,
2013-07-30 11:25:00,72.0,-7.2,30.13,West,262,4.0,0.0,4,0.00,,,0.00,708,WeatherHawk,2013-07-30 18:25:00,
2013-07-30 11:36:00,73.0,-6.5,30.13,West,271,5.0,0.0,4,0.00,,,0.00,755,WeatherHawk,2013-07-30 18:36:00,
2013-07-30 11:41:00,73.8,-5.9,30.13,NNW,327,9.0,0.0,4,0.00,,,0.00,784,WeatherHawk,2013-07-30 18:41:00,
2013-07-30 11:46:00,74.3,-1.0,30.14,North,350,4.0,0.0,5,0.00,,,0.00,649,WeatherHawk,2013-07-30 18:46:00,
2013-07-30 11:51:00,75.4,-0.2,30.13,North,351,4.0,0.0,5,0.00,,,0.00,525,WeatherHawk,2013-07-30 18:51:00,
2013-07-30 11:56:00,76.4,0.5,30.13,North,351,6.0,0.0,5,0.00,,,0.00,720,WeatherHawk,2013-07-30 18:56:00,
2013-07-30 12:01:00,74.6,-0.7,30.13,North,349,6.0,0.0,5,0.00,,,0.00,612,WeatherHawk,2013-07-30 19:01:00,
2013-07-30 12:07:00,76.8,0.8,30.13,NNE,17,0.0,0.0,5,0.00,,,0.00,689,WeatherHawk,2013-07-30 19:07:00,
2013-07-30 12:12:00,74.7,-0.7,30.12,NNW,336,7.0,0.0,5,0.00,,,0.00,731,WeatherHawk,2013-07-30 19:12:00,
2013-07-30 12:17:00,76.0,0.2,30.12,NW,316,7.0,0.0,5,0.00,,,0.00,750,WeatherHawk,2013-07-30 19:17:00,
2013-07-30 12:23:00,75.8,0.1,30.11,NNW,332,6.0,0.0,5,0.00,,,0.00,713,WeatherHawk,2013-07-30 19:23:00,
2013-07-30 12:28:00,76.7,0.7,30.12,NNE,13,3.0,0.0,5,0.00,,,0.00,760,WeatherHawk,2013-07-30 19:28:00,
2013-07-30 12:33:00,80.2,3.2,30.11,NNW,348,6.0,0.0,5,0.00,,,0.00,757,WeatherHawk,2013-07-30 19:33:00,
2013-07-30 12:39:00,77.4,1.2,30.11,NE,38,0.0,0.0,5,0.00,,,0.00,750,WeatherHawk,2013-07-30 19:39:00,
2013-07-30 12:44:00,79.5,2.7,30.10,NNW,333,4.0,0.0,5,0.00,,,0.00,739,WeatherHawk,2013-07-30 19:44:00,
2013-07-30 12:49:00,82.4,4.7,30.10,North,1,0.0,0.0,5,0.00,,,0.00,738,WeatherHawk,2013-07-30 19:49:00,
2013-07-30 12:55:00,78.6,2.1,30.10,NNE,33,8.0,0.0,5,0.00,,,0.00,731,WeatherHawk,2013-07-30 19:55:00,
2013-07-30 13:00:00,79.8,2.9,30.10,SE,146,0.0,0.0,5,0.00,,,0.00,755,WeatherHawk,2013-07-30 20:00:00,
2013-07-30 13:06:00,78.3,1.9,30.11,NNW,336,5.0,0.0,5,0.00,,,0.00,750,WeatherHawk,2013-07-30 20:06:00,
2013-07-30 13:11:00,79.5,2.7,30.10,North,0,4.0,0.0,5,0.00,,,0.00,748,WeatherHawk,2013-07-30 20:11:00,
2013-07-30 13:16:00,78.9,2.3,30.10,NNE,16,5.0,0.0,5,0.00,,,0.00,749,WeatherHawk,2013-07-30 20:16:00,
2013-07-30 13:21:00,79.6,2.7,30.10,NE,50,3.0,0.0,5,0.00,,,0.00,750,WeatherHawk,2013-07-30 20:21:00,
2013-07-30 13:26:00,79.5,2.7,30.09,NNE,12,1.0,0.0,5,0.00,,,0.00,749,WeatherHawk,2013-07-30 20:26:00,
2013-07-30 13:31:00,80.4,3.3,30.09,SE,133,2.0,0.0,5,0.00,,,0.00,748,WeatherHawk,2013-07-30 20:31:00,
2013-07-30 13:36:00,80.7,3.6,30.09,NE,56,9.0,0.0,5,0.00,,,0.00,746,WeatherHawk,2013-07-30 20:36:00,
2013-07-30 13:41:00,82.1,4.5,30.08,North,351,4.0,0.0,5,0.00,,,0.00,747,WeatherHawk,2013-07-30 20:41:00,
2013-07-30 13:46:00,82.8,5.0,30.08,South,179,3.0,0.0,5,0.00,,,0.00,740,WeatherHawk,2013-07-30 20:46:00,
2013-07-30 13:52:00,82.7,4.9,30.08,NNE,23,7.0,0.0,5,0.00,,,0.00,738,WeatherHawk,2013-07-30 20:52:00,
2013-07-30 13:57:00,79.2,2.5,30.08,ENE,58,7.0,0.0,5,0.00,,,0.00,725,WeatherHawk,2013-07-30 20:57:00,
2013-07-30 14:02:00,85.0,6.5,30.08,SE,137,0.0,0.0,5,0.00,,,0.00,701,WeatherHawk,2013-07-30 21:02:00,
2013-07-30 14:07:00,83.9,5.7,30.08,ESE,103,0.0,0.0,5,0.00,,,0.00,725,WeatherHawk,2013-07-30 21:07:00,
2013-07-30 14:12:00,82.7,4.9,30.08,NE,35,3.0,0.0,5,0.00,,,0.00,723,WeatherHawk,2013-07-30 21:12:00,
2013-07-30 14:18:00,82.7,5.0,30.08,NNW,342,3.0,0.0,5,0.00,,,0.00,715,WeatherHawk,2013-07-30 21:18:00,
2013-07-30 14:23:00,85.2,6.7,30.08,South,185,0.0,0.0,5,0.00,,,0.00,714,WeatherHawk,2013-07-30 21:23:00,
2013-07-30 14:28:00,81.1,3.8,30.08,North,351,9.0,0.0,5,0.00,,,0.00,711,WeatherHawk,2013-07-30 21:28:00,
2013-07-30 14:34:00,85.8,7.1,30.07,NNE,20,9.0,0.0,5,0.00,,,0.00,705,WeatherHawk,2013-07-30 21:34:00,
2013-07-30 14:39:00,87.7,8.4,30.07,NNW,340,5.0,0.0,5,0.00,,,0.00,698,WeatherHawk,2013-07-30 21:39:00,
2013-07-30 14:44:00,82.2,4.6,30.07,East,81,4.0,0.0,5,0.00,,,0.00,694,WeatherHawk,2013-07-30 21:44:00,
2013-07-30 14:49:00,82.6,4.9,30.07,SE,140,5.0,0.0,5,0.00,,,0.00,693,WeatherHawk,2013-07-30 21:49:00,
2013-07-30 14:55:00,86.3,7.4,30.07,SSW,193,0.0,0.0,5,0.00,,,0.00,687,WeatherHawk,2013-07-30 21:55:00,
2013-07-30 15:01:00,84.1,5.9,30.07,North,6,9.0,0.0,5,0.00,,,0.00,679,WeatherHawk,2013-07-30 22:01:00,
2013-07-30 15:07:00,83.4,5.5,30.07,NNW,347,3.0,0.0,5,0.00,,,0.00,675,WeatherHawk,2013-07-30 22:07:00,
2013-07-30 15:12:00,84.4,6.2,30.06,NE,39,5.0,0.0,5,0.00,,,0.00,686,WeatherHawk,2013-07-30 22:12:00,
2013-07-30 15:17:00,83.5,5.5,30.06,NNW,341,4.0,0.0,5,0.00,,,0.00,682,WeatherHawk,2013-07-30 22:17:00,
2013-07-30 15:22:00,82.6,4.8,30.06,North,349,3.0,0.0,5,0.00,,,0.00,518,WeatherHawk,2013-07-30 22:22:00,
2013-07-30 15:27:00,86.0,7.2,30.06,NE,41,0.0,0.0,5,0.00,,,0.00,505,WeatherHawk,2013-07-30 22:27:00,
2013-07-30 15:32:00,87.6,8.4,30.06,North,351,2.0,0.0,5,0.00,,,0.00,601,WeatherHawk,2013-07-30 22:32:00,
2013-07-30 15:37:00,83.8,5.7,30.06,North,0,6.0,0.0,5,0.00,,,0.00,547,WeatherHawk,2013-07-30 22:37:00,
2013-07-30 15:43:00,85.4,6.8,30.05,NW,308,1.0,0.0,5,0.00,,,0.00,682,WeatherHawk,2013-07-30 22:43:00,
2013-07-30 15:48:00,85.2,6.7,30.05,ENE,59,5.0,0.0,5,0.00,,,0.00,660,WeatherHawk,2013-07-30 22:48:00,
2013-07-30 15:53:00,83.8,5.7,30.05,NE,38,7.0,0.0,5,0.00,,,0.00,630,WeatherHawk,2013-07-30 22:53:00,
2013-07-30 15:59:00,87.0,7.9,30.06,NNE,16,0.0,0.0,5,0.00,,,0.00,701,WeatherHawk,2013-07-30 22:59:00,
2013-07-30 16:04:00,84.0,5.9,30.04,NNW,346,5.0,0.0,5,0.00,,,0.00,589,WeatherHawk,2013-07-30 23:04:00,
2013-07-30 16:09:00,87.6,8.3,30.05,NW,313,5.0,0.0,5,0.00,,,0.00,374,WeatherHawk,2013-07-30 23:09:00,
2013-07-30 16:14:00,83.7,5.7,30.05,NW,321,6.0,0.0,5,0.00,,,0.00,208,WeatherHawk,2013-07-30 23:14:00,
2013-07-30 16:19:00,83.6,5.6,30.05,NNE,30,3.0,0.0,5,0.00,,,0.00,214,WeatherHawk,2013-07-30 23:19:00,
2013-07-30 16:24:00,84.6,6.2,30.05,North,1,3.0,0.0,5,0.00,,,0.00,227,WeatherHawk,2013-07-30 23:24:00,
2013-07-30 16:29:00,84.4,6.1,30.05,North,350,0.0,0.0,5,0.00,,,0.00,228,WeatherHawk,2013-07-30 23:29:00,
2013-07-30 16:34:00,84.6,6.3,30.05,North,1,4.0,0.0,5,0.00,,,0.00,234,WeatherHawk,2013-07-30 23:34:00,
2013-07-30 16:39:00,84.9,6.5,30.05,North,4,5.0,0.0,5,0.00,,,0.00,239,WeatherHawk,2013-07-30 23:39:00,
2013-07-30 16:45:00,83.9,5.8,30.05,North,350,7.0,0.0,5,0.00,,,0.00,242,WeatherHawk,2013-07-30 23:45:00,
2013-07-30 16:50:00,85.1,6.6,30.05,North,5,5.0,0.0,5,0.00,,,0.00,300,WeatherHawk,2013-07-30 23:50:00,
2013-07-30 16:55:00,85.0,6.5,30.05,NNE,16,11.0,0.0,5,0.00,,,0.00,492,WeatherHawk,2013-07-30 23:55:00,
2013-07-30 17:00:00,86.1,7.3,30.05,North,0,9.0,0.0,5,0.00,,,0.00,652,WeatherHawk,2013-07-31 00:00:00,
2013-07-30 17:06:00,88.5,9.0,30.04,NW,320,7.0,0.0,5,0.00,,,0.00,530,WeatherHawk,2013-07-31 00:06:00,
2013-07-30 17:11:00,84.2,6.0,30.04,NNW,341,8.0,0.0,5,0.00,,,0.00,576,WeatherHawk,2013-07-31 00:11:00,
2013-07-30 17:16:00,86.0,7.2,30.04,North,351,3.0,0.0,5,0.00,,,0.00,552,WeatherHawk,2013-07-31 00:16:00,
2013-07-30 17:22:00,85.8,7.1,30.04,NE,39,8.0,0.0,5,0.00,,,0.00,342,WeatherHawk,2013-07-31 00:22:00,
2013-07-30 17:27:00,84.3,6.0,30.04,NE,39,8.0,0.0,5,0.00,,,0.00,353,WeatherHawk,2013-07-31 00:27:00,
2013-07-30 17:32:00,87.9,8.6,30.04,North,0,5.0,0.0,5,0.00,,,0.00,376,WeatherHawk,2013-07-31 00:32:00,
2013-07-30 17:38:00,85.7,7.1,30.04,North,5,9.0,0.0,5,0.00,,,0.00,364,WeatherHawk,2013-07-31 00:38:00,
2013-07-30 17:43:00,87.0,7.9,30.04,NNW,340,7.0,0.0,5,0.00,,,0.00,330,WeatherHawk,2013-07-31 00:43:00,
2013-07-30 17:48:00,85.8,7.1,30.03,NNE,12,5.0,0.0,5,0.00,,,0.00,295,WeatherHawk,2013-07-31 00:48:00,
2013-07-30 17:53:00,85.7,7.0,30.03,NNW,341,14.0,0.0,5,0.00,,,0.00,286,WeatherHawk,2013-07-31 00:53:00,
2013-07-30 17:58:00,85.5,6.9,30.04,NNW,338,14.0,0.0,5,0.00,,,0.00,213,WeatherHawk,2013-07-31 00:58:00,
2013-07-30 18:03:00,86.1,7.3,30.03,North,10,7.0,0.0,5,0.00,,,0.00,172,WeatherHawk,2013-07-31 01:03:00,
2013-07-30 18:09:00,85.7,7.0,30.04,NW,311,15.0,0.0,5,0.00,,,0.00,261,WeatherHawk,2013-07-31 01:09:00,
2013-07-30 18:14:00,86.1,7.3,30.03,North,351,10.0,0.0,5,0.00,,,0.00,253,WeatherHawk,2013-07-31 01:14:00,
2013-07-30 18:19:00,85.4,6.9,30.03,North,349,10.0,0.0,5,0.00,,,0.00,306,WeatherHawk,2013-07-31 01:19:00,
2013-07-30 18:25:00,84.8,6.4,30.03,NW,324,16.0,0.0,5,0.00,,,0.00,279,WeatherHawk,2013-07-31 01:25:00,
2013-07-30 18:30:00,84.6,6.3,30.03,NNE,12,12.0,0.0,5,0.00,,,0.00,175,WeatherHawk,2013-07-31 01:30:00,
2013-07-30 18:35:00,84.4,6.1,30.03,NNW,333,18.0,0.0,5,0.00,,,0.00,202,WeatherHawk,2013-07-31 01:35:00,
2013-07-30 18:40:00,85.4,6.8,30.04,North,0,12.0,0.0,5,0.00,,,0.00,178,WeatherHawk,2013-07-31 01:40:00,
2013-07-30 18:45:00,85.0,6.5,30.04,NNW,333,7.0,0.0,5,0.00,,,0.00,138,WeatherHawk,2013-07-31 01:45:00,
2013-07-30 18:50:00,84.1,5.9,30.04,North,6,14.0,0.0,5,0.00,,,0.00,176,WeatherHawk,2013-07-31 01:50:00,
2013-07-30 18:55:00,85.1,6.6,30.03,NW,311,12.0,0.0,5,0.00,,,0.00,166,WeatherHawk,2013-07-31 01:55:00,
2013-07-30 19:00:00,85.5,6.9,30.05,NNE,16,8.0,0.0,5,0.00,,,0.00,151,WeatherHawk,2013-07-31 02:00:00,
2013-07-30 19:05:00,84.8,6.4,30.04,NNW,344,13.0,0.0,5,0.00,,,0.00,160,WeatherHawk,2013-07-31 02:05:00,
2013-07-30 19:10:00,83.9,5.8,30.05,North,0,18.0,-999.0,5,0.00,,,0.00,122,WeatherHawk,2013-07-31 02:10:00,
2013-07-30 19:15:00,84.1,5.9,30.04,NNE,25,8.0,0.0,5,0.00,,,0.00,111,WeatherHawk,2013-07-31 02:15:00,
2013-07-30 19:20:00,83.6,5.6,30.05,NNE,33,8.0,0.0,5,0.00,,,0.00,69,WeatherHawk,2013-07-31 02:20:00,
2013-07-30 19:25:00,83.4,5.5,30.05,North,5,11.0,0.0,5,0.00,,,0.00,71,WeatherHawk,2013-07-31 02:25:00,
2013-07-30 19:30:00,83.5,5.5,30.06,North,350,14.0,0.0,5,0.00,,,0.00,86,WeatherHawk,2013-07-31 02:30:00,
2013-07-30 19:35:00,83.6,5.6,30.05,North,0,9.0,0.0,5,0.00,,,0.00,76,WeatherHawk,2013-07-31 02:35:00,
2013-07-30 19:40:00,83.3,5.4,30.06,NW,315,7.0,0.0,5,0.00,,,0.00,72,WeatherHawk,2013-07-31 02:40:00,
2013-07-30 19:45:00,82.8,5.0,30.06,NNW,328,12.0,0.0,5,0.00,,,0.00,49,WeatherHawk,2013-07-31 02:45:00,
2013-07-30 19:50:00,82.0,-0.4,30.06,WNW,284,13.0,0.0,4,0.00,,,0.00,44,WeatherHawk,2013-07-31 02:50:00,
2013-07-30 19:55:00,81.4,8.0,30.07,NW,313,17.0,-999.0,6,0.00,,,0.00,38,WeatherHawk,2013-07-31 02:55:00,
2013-07-30 20:00:00,81.1,11.2,30.07,NNW,328,17.0,0.0,7,0.00,,,0.00,30,WeatherHawk,2013-07-31 03:00:00,
2013-07-30 20:05:00,80.5,3.4,30.08,North,6,12.0,-999.0,5,0.00,,,0.00,25,WeatherHawk,2013-07-31 03:05:00,
2013-07-30 20:10:00,80.3,13.7,30.07,NW,320,13.0,0.0,8,0.00,,,0.00,16,WeatherHawk,2013-07-31 03:10:00,
2013-07-30 20:15:00,79.9,10.4,30.08,NNE,31,8.0,-999.0,7,0.00,,,0.00,10,WeatherHawk,2013-07-31 03:15:00,
2013-07-30 20:20:00,80.2,7.2,30.08,NE,38,19.0,0.0,6,0.00,,,0.00,6,WeatherHawk,2013-07-31 03:20:00,
2013-07-30 20:25:00,79.6,2.7,30.08,NE,39,11.0,0.0,5,0.00,,,0.00,5,WeatherHawk,2013-07-31 03:25:00,
2013-07-30 20:30:00,79.3,9.9,30.08,NNW,337,10.0,0.0,7,0.00,,,0.00,2,WeatherHawk,2013-07-31 03:30:00,
2013-07-30 20:35:00,78.5,9.3,30.09,NW,323,11.0,0.0,7,0.00,,,0.00,3,WeatherHawk,2013-07-31 03:35:00,
2013-07-30 20:40:00,78.3,9.2,30.09,NE,39,16.0,0.0,7,0.00,,,0.00,0,WeatherHawk,2013-07-31 03:40:00,
2013-07-30 20:45:00,78.5,17.4,30.09,North,2,11.0,0.0,10,0.00,,,0.00,0,WeatherHawk,2013-07-31 03:45:00,
2013-07-30 20:50:00,77.6,14.3,30.09,NNW,333,9.0,-999.0,9,0.00,,,0.00,0,WeatherHawk,2013-07-31 03:50:00,
2013-07-30 20:55:00,77.4,14.2,30.10,NW,325,9.0,-999.0,9,0.00,,,0.00,0,WeatherHawk,2013-07-31 03:55:00,
2013-07-30 21:00:00,77.2,16.4,30.10,North,351,6.0,-999.0,10,0.00,,,0.00,0,WeatherHawk,2013-07-31 04:00:00,
2013-07-30 21:01:00,77.5,18.9,30.10,North,351,10.0,0.0,11,0.00,,,0.00,0,WeatherHawk,2013-07-31 04:01:00,
2013-07-30 21:02:00,77.3,16.5,30.09,North,8,9.0,0.0,10,0.00,,,0.00,0,WeatherHawk,2013-07-31 04:02:00,
2013-07-30 21:03:00,77.5,16.6,30.10,NW,326,14.0,0.0,10,0.00,,,0.00,1,WeatherHawk,2013-07-31 04:03:00,
2013-07-30 21:05:00,77.7,14.4,30.10,NNW,334,11.0,0.0,9,0.00,,,0.00,0,WeatherHawk,2013-07-31 04:05:00,
2013-07-30 21:08:00,77.0,16.3,30.10,North,4,7.0,0.0,10,0.00,,,0.00,0,WeatherHawk,2013-07-31 04:08:00,
2013-07-30 21:10:00,77.0,20.5,30.10,NNW,345,9.0,-999.0,12,0.00,,,0.00,0,WeatherHawk,2013-07-31 04:10:00,
2013-07-30 21:15:00,76.8,18.3,30.11,North,0,8.0,0.0,11,0.00,,,0.00,0,WeatherHawk,2013-07-31 04:15:00,
2013-07-30 21:20:00,76.1,19.8,30.10,NW,318,6.0,-999.0,12,0.00,,,0.00,0,WeatherHawk,2013-07-31 04:20:00,
2013-07-30 21:25:00,76.0,17.7,30.11,North,0,8.0,0.0,11,0.00,,,0.00,0,WeatherHawk,2013-07-31 04:25:00,
2013-07-30 21:30:00,75.6,19.4,30.11,North,7,7.0,-999.0,12,0.00,,,0.00,1,WeatherHawk,2013-07-31 04:30:00,
2013-07-30 21:35:00,75.1,20.9,30.11,NNE,21,9.0,0.0,13,0.00,,,0.00,0,WeatherHawk,2013-07-31 04:35:00,
2013-07-30 21:40:00,75.0,22.6,30.12,North,2,9.0,0.0,14,0.00,,,0.00,0,WeatherHawk,2013-07-31 04:40:00,
2013-07-30 21:45:00,74.7,24.0,30.12,NNE,19,7.0,0.0,15,0.00,,,0.00,0,WeatherHawk,2013-07-31 04:45:00,
2013-07-30 21:50:00,74.7,24.0,30.12,NNE,17,10.0,0.0,15,0.00,,,0.00,0,WeatherHawk,2013-07-31 04:50:00,
2013-07-30 21:55:00,74.2,23.6,30.13,NE,42,3.0,0.0,15,0.00,,,0.00,1,WeatherHawk,2013-07-31 04:55:00,
2013-07-30 22:00:00,73.8,24.8,30.12,NE,34,8.0,0.0,16,0.00,,,0.00,0,WeatherHawk,2013-07-31 05:00:00,
2013-07-30 22:05:00,74.0,26.4,30.13,North,7,5.0,0.0,17,0.00,,,0.00,1,WeatherHawk,2013-07-31 05:05:00,
2013-07-30 22:10:00,73.7,26.2,30.13,NW,320,7.0,0.0,17,0.00,,,0.00,0,WeatherHawk,2013-07-31 05:10:00,
2013-07-30 22:15:00,72.9,24.1,30.13,NNE,19,0.0,0.0,16,0.00,,,0.00,0,WeatherHawk,2013-07-31 05:15:00,
2013-07-30 22:20:00,73.0,25.6,30.14,NNE,14,5.0,0.0,17,0.00,,,0.00,1,WeatherHawk,2013-07-31 05:20:00,
2013-07-30 22:25:00,73.1,27.1,30.13,ESE,104,0.0,0.0,18,0.00,,,0.00,0,WeatherHawk,2013-07-31 05:25:00,
2013-07-30 22:30:00,72.7,26.8,30.14,NNE,12,4.0,0.0,18,0.00,,,0.00,0,WeatherHawk,2013-07-31 05:30:00,
2013-07-30 22:35:00,72.3,26.4,30.14,NNE,24,7.0,0.0,18,0.00,,,0.00,0,WeatherHawk,2013-07-31 05:35:00,
2013-07-30 22:40:00,72.5,27.9,30.14,NE,41,4.0,0.0,19,0.00,,,0.00,0,WeatherHawk,2013-07-31 05:40:00,
2013-07-30 22:45:00,71.3,26.9,30.14,NW,320,1.0,0.0,19,0.00,,,0.00,0,WeatherHawk,2013-07-31 05:45:00,
2013-07-30 22:50:00,71.4,27.0,30.14,NW,318,0.0,0.0,19,0.00,,,0.00,0,WeatherHawk,2013-07-31 05:50:00,
2013-07-30 22:55:00,71.4,28.2,30.14,NNE,14,1.0,0.0,20,0.00,,,0.00,0,WeatherHawk,2013-07-31 05:55:00,
2013-07-30 23:00:00,70.7,26.4,30.14,NE,48,2.0,0.0,19,0.00,,,0.00,0,WeatherHawk,2013-07-31 06:00:00,
2013-07-30 23:06:00,71.2,28.0,30.14,NNE,19,5.0,0.0,20,0.00,,,0.00,0,WeatherHawk,2013-07-31 06:06:00,
2013-07-30 23:12:00,70.6,26.4,30.15,NE,41,4.0,0.0,19,0.00,,,0.00,1,WeatherHawk,2013-07-31 06:12:00,
2013-07-30 23:17:00,70.1,27.2,30.14,East,89,1.0,0.0,20,0.00,,,0.00,0,WeatherHawk,2013-07-31 06:17:00,
2013-07-30 23:22:00,69.9,28.2,30.15,ESE,117,0.0,0.0,21,0.00,,,0.00,1,WeatherHawk,2013-07-31 06:22:00,
2013-07-30 23:28:00,69.0,27.4,30.14,SSE,157,1.0,0.0,21,0.00,,,0.00,0,WeatherHawk,2013-07-31 06:28:00,
2013-07-30 23:33:00,69.7,29.1,30.15,SE,126,0.0,0.0,22,0.00,,,0.00,0,WeatherHawk,2013-07-31 06:33:00,
2013-07-30 23:38:00,69.4,28.9,30.13,NE,55,3.0,0.0,22,0.00,,,0.00,0,WeatherHawk,2013-07-31 06:38:00,
2013-07-30 23:43:00,70.0,29.4,30.13,East,79,5.0,0.0,22,0.00,,,0.00,0,WeatherHawk,2013-07-31 06:43:00,
2013-07-30 23:49:00,69.8,29.2,30.13,ENE,65,6.0,0.0,22,0.00,,,0.00,0,WeatherHawk,2013-07-31 06:49:00,
2013-07-30 23:54:00,69.8,30.3,30.14,ENE,62,0.0,0.0,23,0.00,,,0.00,0,WeatherHawk,2013-07-31 06:54:00,
2013-07-30 23:59:00,69.6,30.2,30.14,ENE,72,0.0,0.0,23,0.00,,,0.00,0,WeatherHawk,2013-07-31 06:59:00,